星链-30072 (STARLINK-30072 )

导读

STARLINK-30072是美国太空探索技术公司(SpaceX)发射的星链(Starlink)低轨互联网通信卫星,于2023年8月7日在美国发射升空。它属于星链星座扩容组网卫星,旨在补充完善全球卫星互联网星座覆盖,提升偏远地区网络接入能力,增强星座整体通信服务稳定性,支持星链项目提供高速低延迟的全球互联服务。

Basic Information
目录编号:
57501
目录名称:
STARLINK-30072
国际标识:
2023-113G
轨道中心:
EARTH
卫星名称:
星链-30072
卫星全名:
星链-30072 (STARLINK-30072 )
卫星状态:
在轨 (已飞行1046 天)
发射日期:
2023-08-07 UTC
国别 :
美国 (US)
星等 :
--
Orbit Information
数据来源 国际轨道数据 AOE轨道数据
星历时间 2026-06-16T15:17:41+0800
2天前
查看轨道信息
2026-06-15T07:00:00+0800
3天前
查看轨道信息
半长轴 6861.191km 6861.216km
偏心率 0.0001186 0.0000022
轨道倾角 42.994° 43.007°
近地点辐角 253.427° 34.948°
升交点赤经 179.412° 187.012°
平近点角 106.645° 116.487°
近地点 482.24km 483.063km
远地点 483.868km 483.095km
周期 94.267分钟 94.267分钟
每日圈数 15.275785 15.275701
Detailed Information
固有亮度:
5
最大亮度:
0.3
卫星平台:
Starlink v2.0 mini
覆盖范围:
全球
运营商:
太空探索技术公司
运营商所在国:
美国
制造商(研发单位):
太空探索技术公司
制造商所在国:
美国
使用方式:
暂无
Satellite Introduction
星链(Starlink)计划是由太空探索技术公司(SpaceX)提出的一个巨型低轨卫星互联网星座项目,计划在2019年至2024年间在太空搭建由约1.2万颗卫星组成的“星链”网络,其中1584颗将部署在地球上空550千米处的近地轨道,并从2020年开始工作。该卫星仍在工作。
2D Orbit Map
3D Orbit Map
Orbit Altitude Analysis Chart
Orbit Inclination Analysis Chart
Orbit Comprehensive Analysis Chart
View Comprehensive Chart